Location: Bondula
(6.3703°N, 10.6756°W)
Time: 12:21:31
(UTC+00:00)

Stardust Del rocket - Pass Details

Date: 22 October 2019
Orbit: 287 x 4241 km, 22.5° (Epoch: 12 November)

Event Time Altitude Azimuth Distance (km) Brightness Sun altitude
Exits shadow 05:19:16 22° 302° (WNW) 2,433 6.0 -17.8°
Maximum altitude 05:24:14 64° 18° (NNE) 925 4.4 -16.6°
Drops below altitude 10° 05:28:19 10° 100° (E) 1,842 7.4 -15.6°
Sets 05:29:57 0° 104° (ESE) 2,502 8.6 -15.2°
